Weather History for Tulsa, OK

Change the Weather History Date:

Saturday, February 26, 2011

  Actual Average Record
Temperature  
Mean Temperature 42 °F 46 °F  
Max Temperature 50 °F 57 °F 81 °F (2009)
Min Temperature 34 °F 35 °F 11 °F (1960)
Degree Days  
Heating Degree Days 23 20  
Month to date heating degree days 717 600  
Since 1 July heating degree days 2975 2873  
Moisture  
Dew Point 37 °F    
Average Humidity 85    
Maximum Humidity 96    
Minimum Humidity 74    
Precipitation  
Precipitation 0.00 in 0.08 in 1.25 in (1984)
Month to date precipitation 2.48 1.69  
Year to date precipitation 3.05 3.35  
Sea Level Pressure  
Sea Level Pressure 29.89 in    
Wind  
Wind Speed 6 mph (NE)    
Max Wind Speed 16 mph    
Max Gust Speed 21 mph    
Visibility 5 miles    
Events      
T = Trace of Precipitation, MM = Missing Value Source: NWS Daily Summary

Daily Weather History Graph

Daily Weather History Graph

Search for Another Location

Airport:

Trip Planner

Search our weather history database for the weather conditions in past years. The results will help you decide how hot, cold, wet, or windy it might be!

Date:

Astronomy

Feb. 26, 2011 Rise Set
Actual Time 6:58 AM CST 6:15 PM CST
Civil Twilight 6:32 AM CST 6:41 PM CST
Nautical Twilight 6:02 AM CST 7:11 PM CST
Astronomical Twilight 5:32 AM CST 7:40 PM CST
Moon 2:51 AM CST (2/26) 12:40 PM CST (2/26)
Length of Visible Light 12h 09m
Length of Day
11h 17m
Waning Crescent, 32% of the Moon is Illuminated
Feb 26
Waning Crescent
Mar 4
New
Mar 12
First Quarter
Mar 19
Full
Mar 26
Last Quarter

Hourly Weather History & Observations

Time (CST) Temp. Windchill Dew Point Humidity Pressure Visibility Wind Dir Wind Speed Gust Speed Precip Events Conditions
12:53 AM 34.0 °F 28.0 °F 30.9 °F 89% 30.07 in 4.0 mi NNW 6.9 mph - N/A   Overcast
1:53 AM 34.0 °F 28.0 °F 30.9 °F 89% 30.05 in 4.0 mi North 6.9 mph - N/A   Overcast
2:53 AM 34.0 °F 28.8 °F 30.9 °F 89% 30.03 in 4.0 mi North 5.8 mph - N/A   Overcast
3:53 AM 34.0 °F 28.8 °F 30.9 °F 89% 30.01 in 4.0 mi North 5.8 mph - N/A   Overcast
4:53 AM 34.0 °F 28.8 °F 30.9 °F 89% 30.01 in 4.0 mi North 5.8 mph - N/A   Overcast
5:53 AM 34.0 °F 28.0 °F 30.9 °F 89% 29.99 in 4.0 mi NNE 6.9 mph - N/A   Overcast
6:29 AM 33.8 °F 30.8 °F 32.0 °F 93% 29.97 in 4.0 mi NE 3.5 mph - N/A   Overcast
6:53 AM 34.0 °F 31.0 °F 32.0 °F 92% 29.99 in 4.0 mi NE 3.5 mph - N/A   Overcast
7:32 AM 35.6 °F 32.8 °F 32.0 °F 87% 29.97 in 2.5 mi East 3.5 mph - N/A   Overcast
7:37 AM 35.6 °F 32.8 °F 32.0 °F 87% 29.97 in 1.5 mi ENE 3.5 mph - N/A   Overcast
7:53 AM 35.1 °F - 32.0 °F 89% 29.98 in 1.5 mi Calm Calm - N/A   Overcast
8:53 AM 36.0 °F 31.1 °F 33.1 °F 89% 29.98 in 1.5 mi SE 5.8 mph - N/A   Overcast
9:53 AM 37.9 °F 32.1 °F 36.0 °F 93% 29.95 in 1.2 mi SE 8.1 mph - N/A   Overcast
10:23 AM 39.2 °F 33.6 °F 37.4 °F 93% 29.92 in 3.0 mi SSE 8.1 mph - N/A   Overcast
10:53 AM 39.9 °F 35.1 °F 37.0 °F 89% 29.94 in 3.0 mi South 6.9 mph - N/A   Overcast
11:53 AM 42.1 °F 34.5 °F 37.9 °F 85% 29.89 in 6.0 mi South 15.0 mph 19.6 mph N/A   Overcast
12:19 PM 42.8 °F 38.0 °F 37.4 °F 81% 29.87 in 7.0 mi South 8.1 mph - N/A   Overcast
12:53 PM 44.1 °F 39.5 °F 39.0 °F 82% 29.86 in 7.0 mi South 8.1 mph - N/A   Overcast
1:53 PM 46.0 °F 41.4 °F 41.0 °F 83% 29.83 in 8.0 mi SSW 9.2 mph - N/A   Overcast
2:53 PM 48.0 °F - 41.0 °F 77% 29.81 in 8.0 mi WSW 6.9 mph - N/A   Overcast
3:01 PM 48.2 °F - 41.0 °F 76% 29.80 in 8.0 mi SSW 4.6 mph - N/A   Overcast
3:53 PM 48.9 °F - 41.0 °F 74% 29.79 in 8.0 mi SW 5.8 mph - N/A   Scattered Clouds
4:53 PM 50.0 °F - 42.1 °F 74% 29.78 in 8.0 mi West 3.5 mph - N/A   Clear
5:53 PM 46.9 °F - 41.0 °F 80% 29.80 in 7.0 mi NNW 4.6 mph - N/A   Clear
6:53 PM 46.9 °F - 41.0 °F 80% 29.78 in 8.0 mi NE 4.6 mph - N/A   Clear
7:53 PM 45.0 °F 43.5 °F 39.9 °F 82% 29.78 in 7.0 mi North 3.5 mph - N/A   Clear
8:53 PM 44.1 °F 41.5 °F 39.9 °F 85% 29.76 in 7.0 mi NE 4.6 mph - N/A   Clear
9:53 PM 45.0 °F 43.5 °F 39.9 °F 82% 29.76 in 7.0 mi ENE 3.5 mph - N/A   Partly Cloudy
10:30 PM 42.8 °F 41.1 °F 39.2 °F 87% 29.75 in 6.0 mi NNE 3.5 mph - N/A   Mostly Cloudy
10:48 PM 44.6 °F - 41.0 °F 87% 29.75 in 6.0 mi Calm Calm - N/A   Overcast
10:53 PM 45.0 °F 43.5 °F 41.0 °F 86% 29.76 in 6.0 mi NNE 3.5 mph - N/A   Overcast
11:53 PM 46.0 °F - 42.1 °F 86% 29.73 in 6.0 mi Calm Calm - N/A   Overcast